[[{"header":{"parameterUnit":"m.s-1","parameterCategory":1,"la1":30.2991,"la2":30.254,"lo1":-89.0895,"lo2":-89.0444,"dy":0.0017,"dx":0.0017,"nx":28,"ny":28,"refTime":"2025-03-09T21:00:00:Z","depth":0,"parameterNumber":2,"parameterNumberName":"U-component_of_WINDS"},"data":[0,0,0,0,0,0,0,0,0,0,0,0,0,0,0,0,0,0,0,0,0,0,0,0,0,0,0,0,0,0,0,0,0,0,0,0,0,0,0,0,0,0,0,0,0,0,0,0,0,0,0,0,0,0,0,0,0,0,4.3394,4.3394,0,4.3347,4.3347,4.3346,4.3216,4.3214,4.3211,4.3208,4.3166,4.3167,4.3169,0,0,0,0,0,0,0,0,0,0,0,0,0,4.3378,4.3379,4.3394,4.3394,4.3393,4.3348,4.3347,4.3346,4.3217,4.3214,4.321,4.3207,4.3165,4.3167,4.3169,0,0,0,0,0,0,0,0,0,0,0,0,0,4.3364,4.3379,4.3394,4.3323,4.3316,4.3348,4.3347,4.3346,4.3218,4.3213,4.3209,4.3205,4.3165,4.3167,4.3169,4.3268,0,0,4.3176,4.3177,0,0,0,0,0,0,0,0,4.3365,4.3365,4.3334,4.3328,4.332,4.3283,4.3325,4.332,4.3219,4.3255,4.3208,4.3203,4.3209,4.3207,4.3208,4.3266,4.3264,4.3176,4.3177,4.3178,4.3179,0,0,0,0,0,0,0,4.3366,4.3366,4.3376,4.3334,4.3325,4.3295,4.3289,4.3324,4.3256,4.3252,4.3242,4.3238,4.3204,4.3206,4.3206,4.3263,4.3176,4.3178,4.3179,4.318,4.3404,4.3408,0,0,0,0,0,0,4.3376,4.3368,4.3377,4.3374,4.3332,4.3299,4.3292,4.33,4.3256,4.3245,4.3242,4.3232,4.3204,4.3203,4.3204,4.3319,4.3178,4.318,4.3182,4.3399,4.3405,4.341,0,0,0,0,0,0,4.3377,4.3378,4.3379,4.3368,4.3366,4.3304,4.3314,4.3301,4.3302,4.3248,4.3236,4.3256,4.3201,4.3201,4.3253,4.3316,4.3181,4.3183,4.3394,4.3401,4.3407,4.3549,0,0,0,0,0,0,4.3377,4.3379,4.3415,4.337,4.3367,4.3428,4.3318,4.3303,4.3306,4.3293,4.3258,4.3248,4.3197,4.3251,4.3255,4.3316,4.3185,4.3388,4.3397,4.3405,4.3539,4.356,4.3579,0,0,0,0,0,4.3376,4.3457,4.3417,4.3419,4.341,4.3432,4.343,4.3369,4.3311,4.3348,4.3313,4.3249,4.3308,4.3257,4.3261,4.3324,4.3384,4.3394,4.3404,4.353,4.3556,4.3578,0,0,0,0,0,0,4.3512,4.345,4.3405,4.3473,4.3458,4.341,4.3453,4.3398,4.3401,4.3389,4.3314,4.3307,4.3372,4.3352,4.3297,4.3419,4.3335,4.3347,4.3429,4.3454,4.3473,4.3478,4.3187,0,0,0,0,0,4.3549,4.357,4.3515,4.3581,4.3576,4.3517,4.3524,4.3478,4.346,4.3454,4.3423,4.3411,4.3427,4.3439,4.345,4.3535,4.3527,4.358,4.36,4.3617,4.3629,4.3676,4.37,4.3443,4.3443,4.3443,0,0,4.3628,4.3596,4.3614,4.3608,4.3591,4.3617,4.3512,4.3544,4.3563,4.3459,4.3508,4.3485,4.3466,4.3537,4.3566,4.3523,4.3698,4.363,4.3643,4.3646,4.3689,4.3713,4.3735,4.345,4.3449,4.3448,0,0,4.3784,4.3761,4.3815,4.38,4.3776,4.3736,4.3749,4.3709,4.369,4.3736,4.366,4.3683,4.3711,4.3702,4.3701,4.3856,4.3798,4.3862,4.3967,4.4013,4.4034,4.4051,4.411,4.4132,4.3873,4.3873,4.3874,0,4.3886,4.392,4.385,4.3887,4.3888,4.3793,4.3849,4.3838,4.382,4.3824,4.3775,4.381,4.379,4.3859,4.3897,4.3898,4.3914,4.3866,4.4036,4.4053,4.4068,4.4124,4.4146,4.3881,4.3881,4.388,4.3879,0,4.4047,4.4072,4.4119,4.4103,4.4108,4.4154,4.4094,4.4108,4.4062,4.4029,4.4079,4.4052,4.4058,4.407,4.4026,4.4134,4.4108,4.4049,4.3964,4.4102,4.4153,4.4174,4.3893,4.389,4.3888,4.3886,0,0,4.4289,4.4234,4.4252,4.4245,4.4212,4.4231,4.4275,4.4278,4.4294,4.4285,4.4322,4.4348,4.4294,4.4293,4.4246,4.4287,4.4416,4.4223,4.4221,4.4263,4.4538,4.4586,4.4611,4.4377,4.438,4.4383,4.4541,0,4.444,4.4509,4.4448,4.453,4.4554,4.4465,4.4503,4.4489,4.4459,4.4477,4.4444,4.4465,4.4389,4.4389,4.4425,4.4393,4.4471,4.438,4.4414,4.4416,4.4425,4.4637,4.4687,4.4837,4.456,4.4563,4.4566,0,4.4625,4.4624,4.4708,4.4672,4.468,4.4715,4.4715,4.4732,4.4715,4.4691,4.4691,4.4633,4.4676,4.4591,4.4651,4.4591,4.46,4.4587,4.4591,4.4595,4.4502,4.465,4.4883,4.4907,4.4596,4.4593,4.4591,0,4.4798,4.4817,4.4871,4.4867,4.4825,4.4852,4.4836,4.4814,4.4822,4.4822,4.4827,4.4833,4.4838,4.4845,4.4793,4.4735,4.4861,4.477,4.4845,4.4847,4.4878,4.4878,4.512,4.4879,4.4879,4.4878,4.4878,0,4.4975,4.5032,4.4948,4.4982,4.5043,4.4973,4.5036,4.5011,4.4993,4.5022,4.4945,4.4975,4.4901,4.4924,4.4883,4.4941,4.4943,4.4927,4.4916,4.4936,4.4939,4.4944,4.4934,4.4884,4.4883,4.4882,4.4881,0,4.518,4.5126,4.5179,4.5135,4.5125,4.5173,4.5136,4.5167,4.5131,4.5169,4.5174,4.5119,4.5142,4.5089,4.5105,4.5077,4.5162,4.5132,4.5168,4.516,4.5239,4.5235,4.5497,4.5529,4.5264,4.5267,4.5269,0,4.5299,4.534,4.53,4.5313,4.5301,4.5323,4.533,4.5263,4.5274,4.5258,4.5292,4.5308,4.5317,4.5359,4.5322,4.5335,4.5308,4.5398,4.5309,4.5329,4.5314,4.5314,4.5319,4.5418,4.5422,4.5424,4.5426,0,4.5516,4.5488,4.5499,4.5503,4.5513,4.5513,4.5507,4.5523,4.5452,4.5469,4.549,4.5498,4.5514,4.5532,4.5536,4.5522,4.5465,4.5454,4.5473,4.5496,4.5516,4.551,4.5222,4.5449,4.5447,4.5445,4.5444,4.5443,4.5684,4.5718,4.5695,4.5712,4.57,4.5697,4.5725,4.5692,4.5709,4.5715,4.5675,4.5707,4.5691,4.569,4.5682,4.5708,4.5667,4.5693,4.5701,4.5709,4.5724,4.5509,4.5708,4.5707,4.5706,4.5706,4.5705,0,4.5901,4.5882,4.5898,4.5893,4.5907,4.5847,4.5838,4.5855,4.5884,4.5872,4.5883,4.591,4.5928,4.5893,4.5906,4.5933,4.5908,4.594,4.5939,4.5938,4.5758,4.5742,4.5961,4.596,4.596,4.596,4.596,4.596,4.6016,4.6071,4.604,4.6089,4.607,4.6099,4.61,4.6098,4.6089,4.6122,4.6136,4.6112,4.6092,4.6103,4.6118,4.6107,4.6118,4.616,4.6141,4.5974,4.595,4.5926,4.5911,4.6162,4.6162,4.6319,4.632,4.6322]},{"header":{"parameterUnit":"m.s-1","parameterCategory":1,"la1":30.2991,"la2":30.254,"lo1":-89.0895,"lo2":-89.0444,"dy":0.0017,"dx":0.0017,"nx":28,"ny":28,"refTime":"2025-03-09T21:00:00:Z","depth":0,"parameterNumber":3,"parameterNumberName":"V-component_of_WINDS"},"data":[0,0,0,0,0,0,0,0,0,0,0,0,0,0,0,0,0,0,0,0,0,0,0,0,0,0,0,0,0,0,0,0,0,0,0,0,0,0,0,0,0,0,0,0,0,0,0,0,0,0,0,0,0,0,0,0,0,0,-2.3772,-2.3773,0,-2.3834,-2.3834,-2.3835,-2.3855,-2.3855,-2.3855,-2.3855,-2.3916,-2.3918,-2.392,0,0,0,0,0,0,0,0,0,0,0,0,0,-2.3671,-2.3673,-2.3772,-2.3773,-2.3774,-2.3834,-2.3835,-2.3835,-2.3855,-2.3855,-2.3855,-2.3854,-2.3915,-2.3918,-2.392,0,0,0,0,0,0,0,0,0,0,0,0,0,-2.3722,-2.3673,-2.3772,-2.3791,-2.3793,-2.3834,-2.3835,-2.3836,-2.3855,-2.3855,-2.3855,-2.3854,-2.3915,-2.3917,-2.392,-2.3946,0,0,-2.3929,-2.393,0,0,0,0,0,0,0,0,-2.3719,-2.3725,-2.3787,-2.379,-2.3792,-2.3836,-2.3821,-2.3872,-2.3856,-2.3832,-2.3855,-2.3854,-2.389,-2.3895,-2.3907,-2.3949,-2.3951,-2.3929,-2.3931,-2.3932,-2.3933,0,0,0,0,0,0,0,-2.3715,-2.3723,-2.3796,-2.3788,-2.3791,-2.3796,-2.3803,-2.3831,-2.3862,-2.3834,-2.3835,-2.3843,-2.3891,-2.3904,-2.3909,-2.3952,-2.3929,-2.3931,-2.3933,-2.3934,-2.4019,-2.402,0,0,0,0,0,0,-2.3709,-2.372,-2.3794,-2.3798,-2.3754,-2.3798,-2.3806,-2.3823,-2.3862,-2.3868,-2.3843,-2.3843,-2.39,-2.3905,-2.3911,-2.3944,-2.3932,-2.3935,-2.3936,-2.4018,-2.4019,-2.402,0,0,0,0,0,0,-2.3706,-2.3715,-2.3792,-2.376,-2.377,-2.38,-2.3819,-2.3824,-2.3837,-2.3869,-2.3874,-2.3851,-2.3899,-2.3907,-2.3937,-2.3946,-2.3936,-2.3938,-2.4018,-2.4019,-2.4019,-2.401,0,0,0,0,0,0,-2.3703,-2.3714,-2.3724,-2.376,-2.3771,-2.3817,-2.382,-2.3826,-2.3842,-2.3843,-2.3878,-2.3883,-2.39,-2.3933,-2.394,-2.395,-2.3941,-2.4017,-2.4018,-2.4019,-2.4009,-2.401,-2.4011,0,0,0,0,0,-2.37,-2.3718,-2.3725,-2.3733,-2.3785,-2.3818,-2.3825,-2.3844,-2.3843,-2.3853,-2.3874,-2.3882,-2.3944,-2.3936,-2.3944,-2.3955,-2.4017,-2.4018,-2.4019,-2.4009,-2.401,-2.4011,0,0,0,0,0,0,-2.3682,-2.3723,-2.3731,-2.3761,-2.3786,-2.3821,-2.3835,-2.3844,-2.3869,-2.3869,-2.3892,-2.39,-2.3929,-2.3945,-2.3935,-2.3982,-2.3981,-2.3984,-2.397,-2.3972,-2.3972,-2.3967,-2.3943,0,0,0,0,0,-2.3682,-2.3706,-2.3741,-2.3764,-2.3776,-2.3803,-2.3819,-2.3832,-2.3858,-2.3868,-2.3891,-2.3916,-2.3942,-2.3958,-2.3983,-2.4012,-2.402,-2.4024,-2.4025,-2.4025,-2.4027,-2.4045,-2.4047,-2.4024,-2.4024,-2.4024,0,0,-2.3682,-2.3707,-2.3721,-2.3761,-2.3782,-2.3806,-2.3812,-2.3837,-2.3855,-2.3872,-2.3902,-2.392,-2.395,-2.398,-2.3994,-2.3994,-2.4036,-2.4027,-2.4027,-2.4029,-2.4046,-2.4049,-2.405,-2.4025,-2.4024,-2.4024,0,0,-2.3693,-2.3715,-2.3737,-2.3759,-2.379,-2.3808,-2.3814,-2.3848,-2.3861,-2.3892,-2.3905,-2.3927,-2.397,-2.3991,-2.4007,-2.4029,-2.4037,-2.4036,-2.404,-2.4057,-2.4058,-2.406,-2.4068,-2.4071,-2.4038,-2.4038,-2.4038,0,-2.3688,-2.3726,-2.3748,-2.3773,-2.379,-2.3808,-2.3831,-2.385,-2.3888,-2.39,-2.39,-2.3956,-2.3976,-2.4012,-2.4018,-2.403,-2.4037,-2.4032,-2.4057,-2.4059,-2.406,-2.4068,-2.4071,-2.4038,-2.4038,-2.4038,-2.4038,0,-2.3719,-2.3744,-2.3759,-2.3796,-2.3816,-2.3839,-2.3865,-2.3882,-2.3894,-2.3912,-2.3944,-2.397,-2.4002,-2.4011,-2.4023,-2.4049,-2.4048,-2.4052,-2.4051,-2.4062,-2.407,-2.4073,-2.4038,-2.4038,-2.4038,-2.4038,0,0,-2.372,-2.377,-2.3775,-2.3792,-2.383,-2.385,-2.3875,-2.3906,-2.3921,-2.3947,-2.3968,-2.4005,-2.401,-2.4028,-2.4042,-2.4057,-2.4073,-2.4059,-2.406,-2.4061,-2.4105,-2.4101,-2.4104,-2.4079,-2.408,-2.4081,-2.4102,0,-2.3736,-2.3782,-2.3803,-2.3839,-2.3863,-2.3881,-2.3903,-2.3928,-2.3947,-2.397,-2.399,-2.4016,-2.4019,-2.4031,-2.4047,-2.4068,-2.4082,-2.4067,-2.41,-2.41,-2.4091,-2.4108,-2.4105,-2.4124,-2.4105,-2.4106,-2.4106,0,-2.3761,-2.3788,-2.3827,-2.3862,-2.3873,-2.3892,-2.3924,-2.3946,-2.3975,-2.3987,-2.4009,-2.4023,-2.405,-2.4048,-2.4086,-2.4075,-2.409,-2.4102,-2.4104,-2.4107,-2.4103,-2.4112,-2.413,-2.4133,-2.4111,-2.4111,-2.411,0,-2.3758,-2.3804,-2.3834,-2.3848,-2.389,-2.3903,-2.3921,-2.395,-2.3968,-2.3995,-2.4007,-2.4037,-2.4053,-2.4076,-2.4098,-2.4094,-2.4134,-2.4133,-2.4145,-2.4144,-2.4152,-2.4151,-2.4172,-2.4162,-2.4162,-2.4162,-2.4162,0,-2.3774,-2.3797,-2.3833,-2.3851,-2.3878,-2.3902,-2.3928,-2.3947,-2.3973,-2.3995,-2.4013,-2.4033,-2.4061,-2.4085,-2.4102,-2.4132,-2.4139,-2.4149,-2.4154,-2.4148,-2.4146,-2.4157,-2.4156,-2.4162,-2.4162,-2.4162,-2.4162,0,-2.3774,-2.3799,-2.3833,-2.387,-2.388,-2.3898,-2.393,-2.3949,-2.3969,-2.3997,-2.4005,-2.4035,-2.4065,-2.4089,-2.4127,-2.4139,-2.417,-2.4175,-2.416,-2.4162,-2.4172,-2.4171,-2.4201,-2.4206,-2.4192,-2.4193,-2.4193,0,-2.3783,-2.3801,-2.3841,-2.3857,-2.3875,-2.3901,-2.392,-2.3945,-2.3964,-2.4,-2.4014,-2.4045,-2.4071,-2.4117,-2.4143,-2.4173,-2.4178,-2.4187,-2.4183,-2.4177,-2.4179,-2.4177,-2.4179,-2.4187,-2.4187,-2.4187,-2.4187,0,-2.3795,-2.3807,-2.3833,-2.3864,-2.3886,-2.3912,-2.3938,-2.395,-2.398,-2.4001,-2.4032,-2.4052,-2.4092,-2.4122,-2.4155,-2.4174,-2.4186,-2.4188,-2.4193,-2.4186,-2.4177,-2.4182,-2.4161,-2.4187,-2.4187,-2.4187,-2.4187,-2.4187,-2.38,-2.3817,-2.3848,-2.3877,-2.39,-2.3924,-2.3944,-2.3966,-2.3992,-2.4027,-2.4041,-2.4072,-2.4102,-2.4148,-2.4167,-2.4192,-2.4193,-2.4199,-2.4201,-2.4202,-2.4201,-2.4174,-2.4198,-2.4198,-2.4198,-2.4198,-2.4198,0,-2.3813,-2.3834,-2.3861,-2.3897,-2.392,-2.393,-2.396,-2.3978,-2.4006,-2.4033,-2.4059,-2.4095,-2.4125,-2.4154,-2.4186,-2.42,-2.4206,-2.4208,-2.4207,-2.4211,-2.4198,-2.4191,-2.4202,-2.4202,-2.4202,-2.4202,-2.4202,-2.4202,-2.3822,-2.3853,-2.3868,-2.391,-2.3931,-2.3963,-2.3979,-2.4002,-2.4024,-2.4063,-2.4089,-2.4107,-2.4135,-2.417,-2.4198,-2.4206,-2.4216,-2.4216,-2.4225,-2.4212,-2.4212,-2.4211,-2.4205,-2.4218,-2.4218,-2.4236,-2.4236,-2.4236]}]]